| time (UTC) | temp F | wind direction | speed MPH | gust MPH | rain 1hr in | rain 24hr in | rain mn in | humidity % | barometer mb |
| 20260505004020 | 51 | 252 | 5.0 | 6.0 | 0.00 | 0.05 | 0.05 | 78 | 1012.1 |
| 20260505003517 | 51 | 209 | 4.0 | 9.0 | 0.00 | 0.05 | 0.05 | 76 | 1011.9 |
| 20260505003015 | 51 | 270 | 6.0 | 7.0 | 0.00 | 0.05 | 0.05 | 77 | 1012.0 |
| 20260505002509 | 52 | 192 | 0.0 | 6.0 | 0.05 | 0.05 | 0.05 | 76 | 1012.2 |
| 20260505002009 | 52 | 194 | 4.0 | 9.0 | 0.12 | 0.05 | 0.05 | 74 | 1012.2 |
| 20260505001506 | 53 | 209 | 0.0 | 0.0 | 0.07 | 0.04 | 0.04 | 74 | 1012.6 |
| 20260505001003 | 54 | 244 | 2.0 | 3.0 | 0.05 | 0.03 | 0.03 | 66 | 1012.3 |
| 20260505000500 | 55 | 215 | 2.0 | 6.0 | 0.05 | 0.03 | 0.03 | 64 | 1012.3 |
| 20260504235957 | 55 | 217 | 4.0 | 8.0 | 0.00 | 0.02 | 0.02 | 62 | 1012.2 |
| 20260504235454 | 55 | 254 | 4.0 | 9.0 | 0.00 | 0.02 | 0.02 | 58 | 1012.0 |
| 20260504234950 | 57 | 220 | 5.0 | 11.0 | 0.00 | 0.02 | 0.02 | 57 | 1011.7 |
| 20260504234448 | 58 | 227 | 4.0 | 7.0 | 0.00 | 0.02 | 0.02 | 52 | 1011.7 |
| 20260504233944 | 60 | 200 | 8.0 | 11.0 | 0.00 | 0.02 | 0.02 | 46 | 1011.5 |
| 20260504233440 | 60 | 199 | 0.0 | 2.0 | 0.00 | 0.02 | 0.02 | 44 | 1011.5 |
| 20260504232937 | 61 | 196 | 2.0 | 4.0 | 0.00 | 0.02 | 0.02 | 43 | 1011.4 |
| 20260504232434 | 61 | 290 | 0.0 | 0.0 | 0.00 | 0.02 | 0.02 | 42 | 1011.3 |
| 20260504231932 | 61 | 287 | 0.0 | 0.0 | 0.00 | 0.02 | 0.02 | 42 | 1011.0 |
| 20260504231427 | 61 | 270 | 0.0 | 0.0 | 0.00 | 0.02 | 0.02 | 42 | 1010.8 |
| 20260504230924 | 61 | 242 | 0.0 | 0.0 | 0.00 | 0.02 | 0.02 | 42 | 1010.7 |
| 20260504230421 | 62 | 19 | 0.0 | 0.0 | 0.00 | 0.02 | 0.02 | 42 | 1010.8 |
| 20260504225920 | 62 | 194 | 0.0 | 0.0 | 0.00 | 0.02 | 0.02 | 41 | 1010.6 |
| 20260504225416 | 62 | 218 | 0.0 | 0.0 | 0.00 | 0.02 | 0.02 | 41 | 1010.6 |
| 20260504224914 | 62 | 305 | 0.0 | 4.0 | 0.00 | 0.02 | 0.02 | 40 | 1010.5 |
| 20260504224410 | 63 | 189 | 3.0 | 4.0 | 0.00 | 0.02 | 0.02 | 39 | 1010.3 |
| 20260504223907 | 64 | 290 | 1.0 | 6.0 | 0.00 | 0.02 | 0.02 | 39 | 1010.3 |
| 20260504223403 | 63 | 92 | 0.0 | 1.0 | 0.00 | 0.02 | 0.02 | 40 | 1010.3 |
| 20260504222859 | 62 | 345 | 1.0 | 6.0 | 0.00 | 0.02 | 0.02 | 40 | 1010.5 |
| 20260504222356 | 61 | 231 | 1.0 | 2.0 | 0.00 | 0.02 | 0.02 | 42 | 1010.1 |
| 20260504221855 | 61 | 279 | 1.0 | 3.0 | 0.00 | 0.02 | 0.02 | 41 | 1010.3 |
| 20260504221351 | 61 | 301 | 1.0 | 3.0 | 0.00 | 0.02 | 0.02 | 41 | 1010.5 |
| 20260504220848 | 61 | 288 | 0.0 | 2.0 | 0.00 | 0.02 | 0.02 | 42 | 1010.5 |
| 20260504220344 | 62 | 285 | 0.0 | 4.0 | 0.00 | 0.02 | 0.02 | 42 | 1010.7 |
| 20260504215842 | 62 | 324 | 3.0 | 8.0 | 0.00 | 0.02 | 0.02 | 40 | 1010.7 |
| 20260504215338 | 62 | 243 | 1.0 | 3.0 | 0.00 | 0.02 | 0.02 | 42 | 1011.2 |
| 20260504214834 | 63 | 261 | 2.0 | 3.0 | 0.00 | 0.02 | 0.02 | 41 | 1010.9 |
| 20260504214331 | 62 | 327 | 2.0 | 7.0 | 0.00 | 0.02 | 0.02 | 42 | 1011.2 |
| 20260504213828 | 62 | 269 | 2.0 | 3.0 | 0.00 | 0.02 | 0.02 | 43 | 1011.3 |
| 20260504213324 | 61 | 343 | 0.0 | 3.0 | 0.00 | 0.02 | 0.02 | 44 | 1011.3 |
| 20260504212822 | 61 | 297 | 3.0 | 7.0 | 0.00 | 0.02 | 0.02 | 46 | 1011.3 |
| 20260504212317 | 61 | 251 | 2.0 | 4.0 | 0.00 | 0.02 | 0.02 | 49 | 1011.2 |
| 20260504211815 | 61 | 272 | 1.0 | 4.0 | 0.00 | 0.02 | 0.02 | 51 | 1011.4 |
| 20260504211311 | 60 | 209 | 0.0 | 1.0 | 0.00 | 0.02 | 0.02 | 55 | 1011.3 |
| 20260504210809 | 58 | 200 | 0.0 | 0.0 | 0.00 | 0.02 | 0.02 | 55 | 1011.0 |
| 20260504210306 | 57 | 196 | 0.0 | 0.0 | 0.00 | 0.02 | 0.02 | 61 | 1011.2 |
| 20260504205803 | 56 | 140 | 0.0 | 1.0 | 0.07 | 0.02 | 0.02 | 63 | 1011.3 |
| 20260504205301 | 57 | 176 | 1.0 | 1.0 | 0.07 | 0.02 | 0.02 | 61 | 1011.6 |
| 20260504204759 | 58 | 154 | 0.0 | 1.0 | 0.00 | 0.01 | 0.01 | 49 | 1012.0 |
| 20260504204256 | 59 | 208 | 1.0 | 4.0 | 0.00 | 0.01 | 0.01 | 49 | 1012.3 |
| 20260504203756 | 59 | 192 | 2.0 | 7.0 | 0.00 | 0.01 | 0.01 | 47 | 1012.4 |
| 20260504203252 | 59 | 200 | 1.0 | 2.0 | 0.00 | 0.01 | 0.01 | 49 | 1012.1 |
| 20260504202747 | 59 | 197 | 0.0 | 0.0 | 0.00 | 0.01 | 0.01 | 47 | 1012.3 |
| 20260504202245 | 59 | 105 | 2.0 | 6.0 | 0.00 | 0.01 | 0.01 | 45 | 1012.1 |
| 20260504201742 | 59 | 184 | 0.0 | 1.0 | 0.00 | 0.01 | 0.01 | 47 | 1012.2 |
| 20260504201239 | 60 | 69 | 1.0 | 1.0 | 0.00 | 0.01 | 0.01 | 48 | 1012.1 |
| 20260504200737 | 59 | 166 | 2.0 | 6.0 | 0.00 | 0.01 | 0.01 | 47 | 1012.0 |
| 20260504200232 | 58 | 165 | 0.0 | 1.0 | 0.00 | 0.01 | 0.01 | 52 | 1012.0 |
| 20260504195729 | 58 | 198 | 0.0 | 2.0 | 0.07 | 0.01 | 0.01 | 51 | 1011.9 |
| 20260504195225 | 57 | 52 | 2.0 | 6.0 | 0.07 | 0.01 | 0.01 | 52 | 1011.9 |
| 20260504194722 | 58 | 59 | 0.0 | 2.0 | 0.00 | 0.00 | 0.00 | 54 | 1011.7 |
| 20260504194218 | 60 | 70 | 2.0 | 4.0 | 0.00 | 0.00 | 0.00 | 48 | 1011.7 |
| 20260504193715 | 61 | 20 | 2.0 | 8.0 | 0.00 | 0.00 | 0.00 | 41 | 1011.7 |
| 20260504193212 | 62 | 325 | 2.0 | 8.0 | 0.00 | 0.00 | 0.00 | 35 | 1011.7 |
| 20260504192711 | 64 | 336 | 3.0 | 6.0 | 0.00 | 0.00 | 0.00 | 33 | 1011.4 |
| 20260504192208 | 65 | 241 | 0.0 | 2.0 | 0.00 | 0.00 | 0.00 | 32 | 1011.2 |
| 20260504191707 | 65 | 204 | 1.0 | 2.0 | 0.00 | 0.00 | 0.00 | 31 | 1010.7 |
| 20260504191203 | 65 | 196 | 0.0 | 0.0 | 0.00 | 0.00 | 0.00 | 31 | 1010.7 |
| 20260504190658 | 65 | 154 | 0.0 | 0.0 | 0.00 | 0.00 | 0.00 | 33 | 1010.6 |
| 20260504190155 | 65 | 131 | 0.0 | 0.0 | 0.00 | 0.00 | 0.00 | 34 | 1010.5 |
| 20260504185651 | 66 | 103 | 2.0 | 2.0 | 0.00 | 0.00 | 0.00 | 36 | 1010.5 |
| 20260504185148 | 68 | 297 | 6.0 | 11.0 | 0.00 | 0.00 | 0.00 | 26 | 1010.5 |
| 20260504184644 | 68 | 249 | 0.0 | 0.0 | 0.00 | 0.00 | 0.00 | 26 | 1010.2 |
| 20260504184139 | 69 | 206 | 2.0 | 10.0 | 0.00 | 0.00 | 0.00 | 25 | 1010.1 |
| 20260504183636 | 69 | 197 | 1.0 | 2.0 | 0.00 | 0.00 | 0.00 | 24 | 1009.9 |
| 20260504183134 | 69 | 209 | 0.0 | 4.0 | 0.00 | 0.00 | 0.00 | 22 | 1009.8 |
| 20260504182632 | 70 | 142 | 0.0 | 1.0 | 0.00 | 0.00 | 0.00 | 22 | 1009.8 |
| 20260504182129 | 69 | 177 | 1.0 | 2.0 | 0.00 | 0.00 | 0.00 | 23 | 1010.1 |
| 20260504181626 | 70 | 197 | 1.0 | 6.0 | 0.00 | 0.00 | 0.00 | 24 | 1010.1 |
| 20260504181123 | 70 | 173 | 1.0 | 2.0 | 0.00 | 0.00 | 0.00 | 23 | 1010.0 |
| 20260504180623 | 70 | 203 | 0.0 | 1.0 | 0.00 | 0.00 | 0.00 | 22 | 1010.0 |
| 20260504180121 | 70 | 228 | 0.0 | 6.0 | 0.00 | 0.00 | 0.00 | 22 | 1009.9 |
| 20260504175618 | 72 | 227 | 3.0 | 8.0 | 0.00 | 0.00 | 0.00 | 22 | 1010.0 |
| 20260504175114 | 71 | 180 | 0.0 | 2.0 | 0.00 | 0.00 | 0.00 | 23 | 1010.0 |
| 20260504174613 | 71 | 290 | 1.0 | 6.0 | 0.00 | 0.00 | 0.00 | 24 | 1010.1 |
| 20260504174109 | 72 | 207 | 4.0 | 7.0 | 0.00 | 0.00 | 0.00 | 22 | 1010.0 |
| 20260504173606 | 71 | 255 | 2.0 | 7.0 | 0.00 | 0.00 | 0.00 | 23 | 1010.3 |
| 20260504173104 | 71 | 267 | 6.0 | 8.0 | 0.00 | 0.00 | 0.00 | 23 | 1010.3 |
| 20260504172600 | 71 | 255 | 4.0 | 8.0 | 0.00 | 0.00 | 0.00 | 22 | 1010.1 |
| 20260504172056 | 71 | 238 | 2.0 | 6.0 | 0.00 | 0.00 | 0.00 | 22 | 1010.3 |
| 20260504171553 | 71 | 309 | 4.0 | 7.0 | 0.00 | 0.00 | 0.00 | 21 | 1010.5 |
| 20260504171050 | 71 | 349 | 6.0 | 13.0 | 0.00 | 0.00 | 0.00 | 22 | 1010.6 |
| 20260504170545 | 70 | 203 | 2.0 | 4.0 | 0.00 | 0.00 | 0.00 | 24 | 1010.6 |
| 20260504150930 | 63 | 124 | 0.0 | 0.0 | 0.00 | 0.00 | 0.00 | 37 | 1010.8 |
| 20260504150426 | 61 | 138 | 0.0 | 0.0 | 0.00 | 0.00 | 0.00 | 40 | 1010.9 |
| 20260504140853 | 54 | 172 | 0.0 | 0.0 | 0.00 | 0.00 | 0.00 | 49 | 1011.3 |
| 20260504140349 | 53 | 143 | 0.0 | 0.0 | 0.00 | 0.00 | 0.00 | 48 | 1011.4 |
| 20260504130818 | 45 | 195 | 0.0 | 0.0 | 0.00 | 0.00 | 0.00 | 64 | 1011.5 |
| 20260504130314 | 44 | 164 | 0.0 | 0.0 | 0.00 | 0.00 | 0.00 | 67 | 1011.2 |
| 20260504120237 | 40 | 164 | 0.0 | 0.0 | 0.00 | 0.00 | 0.00 | 71 | 1011.0 |
| 20260504110705 | 41 | 164 | 0.0 | 0.0 | 0.00 | 0.00 | 0.00 | 68 | 1011.4 |
| 20260504110201 | 41 | 163 | 0.0 | 0.0 | 0.00 | 0.00 | 0.00 | 69 | 1011.2 |
| 20260504100125 | 42 | 163 | 0.0 | 0.0 | 0.00 | 0.00 | 0.00 | 66 | 1011.5 |
| 20260504081518 | 45 | 164 | 0.0 | 0.0 | 0.00 | 0.00 | 0.00 | 56 | 1012.7 |
| 20260504081014 | 45 | 164 | 0.0 | 0.0 | 0.00 | 0.00 | 0.00 | 56 | 1012.7 |
| 20260504080510 | 45 | 164 | 0.0 | 0.0 | 0.00 | 0.00 | 0.00 | 55 | 1012.7 |
| 20260504050312 | 55 | 162 | 0.0 | 0.0 | 0.00 | 0.00 | 0.00 | 38 | 1013.8 |
| 20260504045808 | 55 | 149 | 0.0 | 0.0 | 0.00 | 0.00 | 0.00 | 37 | 1013.8 |
| 20260504045304 | 56 | 190 | 0.0 | 0.0 | 0.00 | 0.00 | 0.00 | 37 | 1014.1 |
| 20260504044800 | 57 | 144 | 0.0 | 0.0 | 0.00 | 0.00 | 0.00 | 36 | 1013.8 |
| 20260504044258 | 57 | 173 | 0.0 | 0.0 | 0.00 | 0.00 | 0.00 | 36 | 1013.7 |
| 20260504043755 | 58 | 215 | 0.0 | 0.0 | 0.00 | 0.00 | 0.00 | 35 | 1014.0 |
| 20260504043251 | 58 | 181 | 0.0 | 0.0 | 0.00 | 0.00 | 0.00 | 35 | 1014.1 |
| 20260504042750 | 58 | 180 | 0.0 | 0.0 | 0.00 | 0.00 | 0.00 | 35 | 1013.8 |
| 20260504042245 | 58 | 181 | 0.0 | 0.0 | 0.00 | 0.00 | 0.00 | 34 | 1013.7 |
| 20260504041742 | 59 | 196 | 0.0 | 0.0 | 0.00 | 0.00 | 0.00 | 33 | 1014.0 |
| 20260504041238 | 59 | 198 | 0.0 | 0.0 | 0.00 | 0.00 | 0.00 | 32 | 1014.0 |
| 20260504040734 | 60 | 156 | 0.0 | 0.0 | 0.00 | 0.00 | 0.00 | 31 | 1014.0 |
| 20260504040232 | 60 | 202 | 0.0 | 1.0 | 0.00 | 0.00 | 0.00 | 31 | 1014.2 |
| 20260504035728 | 60 | 271 | 0.0 | 0.0 | 0.00 | 0.00 | 0.00 | 29 | 1014.0 |
| 20260504035225 | 61 | 216 | 0.0 | 0.0 | 0.00 | 0.00 | 0.00 | 28 | 1013.7 |
| 20260504034723 | 61 | 63 | 0.0 | 0.0 | 0.00 | 0.00 | 0.00 | 27 | 1013.8 |
| 20260504034220 | 62 | 8 | 0.0 | 0.0 | 0.00 | 0.00 | 0.00 | 26 | 1014.0 |
| 20260504033718 | 62 | 250 | 0.0 | 0.0 | 0.00 | 0.00 | 0.00 | 25 | 1013.8 |
| 20260504033215 | 62 | 252 | 0.0 | 2.0 | 0.00 | 0.00 | 0.00 | 25 | 1013.7 |
| 20260504032711 | 62 | 254 | 0.0 | 2.0 | 0.00 | 0.00 | 0.00 | 24 | 1013.6 |
| 20260504032209 | 62 | 256 | 0.0 | 0.0 | 0.00 | 0.00 | 0.00 | 25 | 1013.5 |
| 20260504031705 | 62 | 206 | 0.0 | 0.0 | 0.00 | 0.00 | 0.00 | 26 | 1013.4 |
| 20260504031202 | 62 | 208 | 0.0 | 0.0 | 0.00 | 0.00 | 0.00 | 26 | 1013.4 |
| 20260504030658 | 62 | 126 | 0.0 | 0.0 | 0.00 | 0.00 | 0.00 | 26 | 1013.3 |
| 20260504030156 | 62 | 42 | 0.0 | 0.0 | 0.00 | 0.00 | 0.00 | 26 | 1013.1 |
| 20260504025652 | 60 | 187 | 0.0 | 2.0 | 0.00 | 0.00 | 0.00 | 29 | 1013.0 |
| 20260504025149 | 61 | 46 | 0.0 | 0.0 | 0.00 | 0.00 | 0.00 | 30 | 1013.0 |
| 20260504024646 | 62 | 214 | 0.0 | 0.0 | 0.00 | 0.00 | 0.00 | 28 | 1012.7 |
| 20260504024142 | 62 | 214 | 0.0 | 0.0 | 0.00 | 0.00 | 0.00 | 29 | 1012.7 |
| 20260504023639 | 62 | 214 | 0.0 | 0.0 | 0.00 | 0.00 | 0.00 | 30 | 1012.8 |
| 20260504023135 | 62 | 214 | 0.0 | 0.0 | 0.00 | 0.00 | 0.00 | 32 | 1012.7 |
| 20260504022632 | 62 | 214 | 0.0 | 0.0 | 0.00 | 0.00 | 0.00 | 30 | 1012.8 |
| 20260504022127 | 62 | 214 | 0.0 | 0.0 | 0.00 | 0.00 | 0.00 | 31 | 1012.7 |
| 20260504021626 | 62 | 222 | 0.0 | 0.0 | 0.00 | 0.00 | 0.00 | 29 | 1012.7 |
| 20260504021122 | 62 | 162 | 0.0 | 0.0 | 0.00 | 0.00 | 0.00 | 32 | 1012.4 |
| 20260504020620 | 63 | 162 | 0.0 | 0.0 | 0.00 | 0.00 | 0.00 | 31 | 1012.6 |
| 20260504020115 | 63 | 162 | 0.0 | 0.0 | 0.00 | 0.00 | 0.00 | 31 | 1012.4 |
| 20260504015612 | 64 | 162 | 0.0 | 0.0 | 0.00 | 0.00 | 0.00 | 30 | 1012.7 |
| 20260504015108 | 65 | 162 | 0.0 | 0.0 | 0.00 | 0.00 | 0.00 | 29 | 1012.6 |
| 20260504014604 | 65 | 162 | 0.0 | 0.0 | 0.00 | 0.00 | 0.00 | 28 | 1012.7 |
| 20260504014102 | 65 | 162 | 0.0 | 0.0 | 0.00 | 0.00 | 0.00 | 28 | 1012.7 |
| 20260504013559 | 66 | 162 | 0.0 | 0.0 | 0.00 | 0.00 | 0.00 | 28 | 1012.3 |
| 20260504013056 | 66 | 162 | 0.0 | 0.0 | 0.00 | 0.00 | 0.00 | 28 | 1012.7 |
| 20260504012553 | 67 | 162 | 0.0 | 0.0 | 0.00 | 0.00 | 0.00 | 27 | 1012.4 |
| 20260504012051 | 68 | 162 | 0.0 | 0.0 | 0.00 | 0.00 | 0.00 | 27 | 1012.7 |
| 20260504011547 | 69 | 162 | 0.0 | 0.0 | 0.00 | 0.00 | 0.00 | 25 | 1012.7 |
| 20260504011044 | 68 | 161 | 0.0 | 0.0 | 0.00 | 0.00 | 0.00 | 24 | 1012.7 |
| 20260504010539 | 68 | 161 | 0.0 | 0.0 | 0.00 | 0.00 | 0.00 | 26 | 1012.3 |
| 20260504010036 | 68 | 161 | 0.0 | 0.0 | 0.00 | 0.00 | 0.00 | 24 | 1012.4 |
| 20260504005532 | 68 | 161 | 0.0 | 0.0 | 0.00 | 0.00 | 0.00 | 24 | 1012.6 |
| 20260504005030 | 69 | 161 | 0.0 | 0.0 | 0.00 | 0.00 | 0.00 | 23 | 1012.6 |
| 20260504004528 | 69 | 161 | 0.0 | 0.0 | 0.00 | 0.00 | 0.00 | 23 | 1012.7 |